Hourly Data Report for September 30, 2005

TORONTO CITY
ONTARIO

43°40'00.000" N
79°24'00.000" W
112.50 m
6158355
71508
XTO

Download Data

Hourly Data (September 2005)
Hourly Data Report for September 30, 2005
TIME
LST
Temp Definition
°C
Dew Point Definition
°C
Rel Hum Definition
%
Precip. Amount Definition
mm

Wind Dir Definition
10's deg

Wind Spd Definition
km/h
Visibility Definition
km
Stn Press Definition
kPa
Hmdx Definition


Wind Chill Definition


Weather Definition


00:00 9.7 5.4 75   LegendMM LegendMM   100.40     LegendNANA
01:00 9.3 5.7 78   LegendMM LegendMM   100.48     LegendNANA
02:00 8.7 5.8 82   LegendMM LegendMM   100.50     LegendNANA
03:00 8.7 6.1 84   LegendMM LegendMM   100.55     LegendNANA
04:00 9.4 6.2 80   LegendMM LegendMM   100.61     LegendNANA
05:00 8.5 5.9 84   LegendMM LegendMM   100.61     LegendNANA
06:00 8.4 6.4 87   LegendMM LegendMM   100.66     LegendNANA
07:00 9.5 6.9 84   LegendMM LegendMM   100.71     LegendNANA
08:00 10.3 6.9 79   LegendMM LegendMM   100.73     LegendNANA
09:00 11.7 6.8 72   LegendMM LegendMM   100.72     LegendNANA
10:00 12.4 6.8 69   LegendMM LegendMM   100.72     LegendNANA
11:00 13.1 5.5 60   LegendMM LegendMM   100.68     LegendNANA
12:00 14.8 4.9 51   LegendMM LegendMM   100.64     LegendNANA
13:00 17.0 5.0 45   LegendMM LegendMM   100.58     LegendNANA
14:00 17.5 4.4 42   LegendMM LegendMM   100.52     LegendNANA
15:00 17.1 4.3 43   LegendMM LegendMM   100.46     LegendNANA
16:00 16.3 5.8 50   LegendMM LegendMM   100.45     LegendNANA
17:00 16.3 9.0 62   LegendMM LegendMM   100.43     LegendNANA
18:00 15.4 9.5 68   LegendMM LegendMM   100.43     LegendNANA
19:00 15.4 8.4 63   LegendMM LegendMM   100.48     LegendNANA
20:00 14.0 8.2 68   LegendMM LegendMM   100.56     LegendNANA
21:00 13.8 8.3 69   LegendMM LegendMM   100.61     LegendNANA
22:00 12.6 8.5 76   LegendMM LegendMM   100.57     LegendNANA
23:00 12.4 9.1 80   LegendMM LegendMM   100.55     LegendNANA

Notes on Data Quality.

Legend

  • E = Estimated
  • M = Missing
  • NA = Not Available*
  • [empty] = Indicates an unobserved value
Date modified: